Weather History for Baudette, MN

Change the Weather History Date:

Thursday, October 18, 2012

  Actual Average Record
Temperature  
Mean Temperature 48 °F -  
Max Temperature 51 °F 51 °F 75 °F (1945)
Min Temperature 46 °F 32 °F 16 °F (1992)
Degree Days  
Heating Degree Days 16    
Moisture  
Dew Point 47 °F    
Average Humidity 94    
Maximum Humidity 100    
Minimum Humidity 88    
Precipitation  
Precipitation 0.50 in - - ()
Sea Level Pressure  
Sea Level Pressure 29.28 in    
Wind  
Wind Speed 9 mph (North)    
Max Wind Speed 20 mph    
Max Gust Speed 26 mph    
Visibility 7 miles    
Events Rain    
Averages and records for this station are not official NWS values.
T = Trace of Precipitation, MM = Missing Value Source: NWS Daily Summary

Daily Weather History Graph

Daily Weather History Graph

Search for Another Location

Airport:

Trip Planner

Search our weather history database for the weather conditions in past years. The results will help you decide how hot, cold, wet, or windy it might be!

Date:

Astronomy

Oct. 18, 2012 Rise Set
Actual Time 7:44 AM CDT 6:22 PM CDT
Civil Twilight 7:12 AM CDT 6:54 PM CDT
Nautical Twilight 6:35 AM CDT 7:30 PM CDT
Astronomical Twilight 5:59 AM CDT 8:06 PM CDT
Moon 11:44 AM CDT (10/18) 8:39 PM CDT (10/18)
Length of Visible Light 11h 41m
Length of Day
10h 38m
Waxing Crescent, 14% of the Moon is Illuminated
Oct 18
Waxing Crescent
Oct 21
First Quarter
Oct 29
Full
Nov 6
Last Quarter
Nov 13
New

Hourly Weather History & Observations

Time (CDT) Temp. Windchill Dew Point Humidity Pressure Visibility Wind Dir Wind Speed Gust Speed Precip Events Conditions
12:02 AM 48.2 °F - 46.4 °F 93% 29.14 in 2.0 mi SSE 5.8 mph - 0.00 in Rain Light Rain
12:14 AM 48.2 °F - 46.4 °F 93% 29.15 in 5.0 mi SSE 8.1 mph - 0.00 in   Overcast
12:43 AM 48.2 °F - 46.4 °F 93% 29.14 in 9.0 mi Variable 5.8 mph - 0.00 in   Overcast
12:53 AM 46.9 °F - 46.0 °F 97% 29.16 in 10.0 mi SSE 4.6 mph - 0.00 in   Overcast
1:14 AM 46.4 °F 44.3 °F 44.6 °F 93% 29.15 in 9.0 mi SSE 4.6 mph - N/A   Overcast
1:53 AM 46.9 °F - 45.0 °F 93% 29.18 in 10.0 mi SSE 5.8 mph - N/A   Overcast
2:53 AM 46.9 °F - 45.0 °F 93% 29.19 in 10.0 mi East 5.8 mph - N/A   Overcast
3:53 AM 46.9 °F - 45.0 °F 93% 29.21 in 10.0 mi East 5.8 mph - N/A   Overcast
4:27 AM 46.4 °F 45.2 °F 44.6 °F 93% 29.20 in 10.0 mi East 3.5 mph - N/A   Overcast
4:53 AM 46.9 °F - 44.1 °F 90% 29.22 in 10.0 mi ENE 3.5 mph - N/A   Overcast
5:53 AM 46.9 °F - 44.1 °F 90% 29.23 in 10.0 mi NE 6.9 mph - N/A   Overcast
6:53 AM 46.9 °F - 45.0 °F 93% 29.24 in 10.0 mi NNW 4.6 mph - N/A   Overcast
7:24 AM 46.4 °F 43.5 °F 44.6 °F 93% 29.22 in 10.0 mi NNW 5.8 mph - 0.00 in Rain Light Rain
7:53 AM 46.9 °F - 45.0 °F 93% 29.25 in 5.0 mi NNW 6.9 mph - 0.04 in Rain Light Rain
8:27 AM 46.4 °F 41.9 °F 46.4 °F 100% 29.23 in 7.0 mi NNW 9.2 mph - 0.03 in Rain Light Rain
8:40 AM 48.2 °F - 46.4 °F 93% 29.22 in 10.0 mi NNW 11.5 mph - 0.03 in Rain Light Rain
8:48 AM 48.2 °F - 46.4 °F 93% 29.22 in 6.0 mi NNW 10.4 mph - 0.03 in Rain Light Rain
8:53 AM 48.0 °F - 46.9 °F 96% 29.24 in 6.0 mi NNW 10.4 mph - 0.03 in Rain Light Rain
9:02 AM 48.2 °F - 46.4 °F 93% 29.22 in 5.0 mi NNW 11.5 mph - 0.01 in Rain Light Rain
9:09 AM 48.2 °F - 46.4 °F 93% 29.22 in 3.0 mi NNW 13.8 mph - 0.03 in Rain Rain
9:32 AM 48.2 °F - 48.2 °F 100% 29.22 in 3.0 mi NNW 12.7 mph - 0.09 in Rain Rain
9:53 AM 48.9 °F - 48.0 °F 97% 29.24 in 3.0 mi North 12.7 mph 18.4 mph 0.15 in Rain Rain
10:37 AM 50.0 °F - 48.2 °F 94% 29.22 in 5.0 mi North 16.1 mph - 0.08 in Rain Rain
10:53 AM 50.0 °F - 48.9 °F 96% 29.24 in 6.0 mi North 13.8 mph - 0.10 in Rain Light Rain
11:53 AM 51.1 °F - 48.9 °F 92% 29.26 in 7.0 mi North 15.0 mph - 0.04 in Rain Light Rain
12:19 PM 51.8 °F - 48.2 °F 88% 29.24 in 5.0 mi North 15.0 mph 24.2 mph 0.01 in Rain Light Rain
12:45 PM 51.8 °F - 48.2 °F 88% 29.25 in 4.0 mi North 16.1 mph - 0.04 in Rain Light Rain
12:53 PM 51.1 °F - 48.9 °F 92% 29.27 in 5.0 mi North 16.1 mph - 0.05 in Rain Light Rain
1:53 PM 51.1 °F - 48.9 °F 92% 29.28 in 3.0 mi North 19.6 mph 25.3 mph 0.04 in Rain Light Rain
2:21 PM 50.0 °F - 48.2 °F 94% 29.27 in 2.0 mi North 16.1 mph 24.2 mph 0.01 in Rain Light Rain
2:35 PM 50.0 °F - 48.2 °F 94% 29.27 in 3.0 mi North 17.3 mph - 0.02 in Rain Light Rain
2:53 PM 50.0 °F - 48.9 °F 96% 29.29 in 3.0 mi North 18.4 mph 24.2 mph 0.03 in Rain Light Rain
3:53 PM 50.0 °F - 48.9 °F 96% 29.32 in 4.0 mi North 17.3 mph 23.0 mph 0.01 in Rain Light Rain
4:53 PM 50.0 °F - 48.9 °F 96% 29.36 in 3.0 mi North 15.0 mph 23.0 mph 0.01 in Rain Light Rain
5:53 PM 50.0 °F - 48.9 °F 96% 29.40 in 10.0 mi North 13.8 mph - 0.00 in   Overcast
6:53 PM 50.0 °F - 48.0 °F 93% 29.44 in 10.0 mi North 15.0 mph 23.0 mph N/A   Overcast
7:53 PM 50.0 °F - 48.0 °F 93% 29.47 in 10.0 mi North 15.0 mph - N/A   Overcast
8:53 PM 50.0 °F - 46.9 °F 89% 29.49 in 10.0 mi North 16.1 mph 26.5 mph 0.00 in   Overcast
9:53 PM 48.9 °F - 46.9 °F 93% 29.52 in 10.0 mi North 19.6 mph - N/A   Overcast
10:34 PM 48.2 °F - 46.4 °F 93% 29.52 in 10.0 mi North 16.1 mph 21.9 mph N/A   Overcast
10:53 PM 46.9 °F - 46.0 °F 97% 29.54 in 10.0 mi North 16.1 mph 24.2 mph N/A   Overcast
11:53 PM 46.0 °F 39.9 °F 45.0 °F 96% 29.56 in 10.0 mi North 13.8 mph 21.9 mph N/A   Overcast